Location: PSU-Greenbush Astrophysical Observatory
(37.5140°N, 94.9880°W)
Time: 14:59:10
(UTC-06:00)

deb Explorer IX - Pass Details

Date: 02 February 2020
Orbit: 549 x 1099 km, 38.8° (Epoch: 18 February)

Event Time Altitude Azimuth Distance (km) Brightness Sun altitude
Rises 22:28:19 0° 283° (WNW) 3,625 ? -55.5°
Enters shadow 22:29:15 - 283° (WNW) 3,299 ? -55.6°
Reaches altitude 10° 22:30:50 10° 282° (WNW) 2,746 - -55.9°
Maximum altitude 22:37:37 79° 197° (SSW) 1,082 - -57.1°
Drops below altitude 10° 22:44:55 10° 112° (ESE) 2,943 - -58.3°
Sets 22:47:42 0° 111° (ESE) 3,898 - -58.7°
